Location: ?p Thanh B�nh
(16.5833°N, 107.5333°E)
Time: 09:24:24
(UTC+00:00)

Atlas Centaur 2 - Pass Details

Date: 29 October 2020
Orbit: 459 x 1309 km, 30.4° (Epoch: 23 November)

Event Time Altitude Azimuth Distance (km) Brightness Sun altitude
Rises 12:10:38 0° 295° (WNW) 4,206 6.7 -26.8°
Reaches altitude 10° 12:13:57 10° 305° (NW) 3,290 5.8 -27.5°
Maximum altitude 12:21:15 31° 4° (N) 2,102 4.1 -29.3°
Enters shadow 12:22:10 31° 15° (NNE) 2,121 4.0 -29.5°
